Location: Armagh
(54.3500°N, 6.6670°W)
Time: 23:57:36
(UTC+01:00)

ISS - Pass Details

Date: 17 December 2017
Orbit: 403 x 406 km, 51.6° (Epoch: 24 April)

Event Time Altitude Azimuth Distance (km) Brightness Sun altitude
Rises 16:27:57 0° 277° (W) 2,362 0.9 -3.7°
Reaches altitude 10° 16:30:18 10° 262° (W) 1,495 0.2 -4.0°
Maximum altitude 16:33:01 23° 208° (SSW) 943 -1.0 -4.3°
Drops below altitude 10° 16:35:42 10° 154° (SSE) 1,486 -0.8 -4.6°
Enters shadow 16:46:32 -22° 126° (SE) 5,680 1.8 -6.0°
